• In Portugal
  • List of Countries
  • For 7 days
  • Water Temperature
  • Satellite Maps
  • Weather Map
  • Weather Widgets
  • user-avatar
    Login

    Hourly Weather Struga

    Today, 21 April, Saturday

    Time Temperature Precipitation Wind Pressure Humidity
    00:00 +14°C° 0 mm 3 mps 729 mmHg 68%
    01:00 +15°C° 0 mm 2 mps 729 mmHg 67%
    02:00 +13°C° 0 mm 3 mps 729 mmHg 68%
    03:00 +13°C° 0 mm 3 mps 728 mmHg 69%
    04:00 +13°C° 0 mm 3 mps 728 mmHg 71%
    05:00 +15°C° 0 mm 2 mps 728 mmHg 69%
    06:00 +16°C° 0 mm 2 mps 729 mmHg 68%
    07:00 +17°C° 0 mm 3 mps 729 mmHg 64%
    08:00 +19°C° 0 mm 3 mps 729 mmHg 60%
    09:00 +20°C° 0 mm 3 mps 729 mmHg 55%
    10:00 +22°C° 0 mm 3 mps 729 mmHg 51%
    11:00 +24°C° 0 mm 3 mps 729 mmHg 49%
    12:00 +25°C° 0 mm 3 mps 729 mmHg 48%
    13:00 +25°C° 0 mm 3 mps 729 mmHg 46%
    14:00 +25°C° 0 mm 4 mps 728 mmHg 48%
    15:00 +23°C° 0 mm 4 mps 728 mmHg 49%
    16:00 +23°C° 0 mm 4 mps 728 mmHg 50%
    17:00 +21°C° 0.1 mm 3 mps 728 mmHg 57%
    18:00 +18°C° 0.1 mm 3 mps 728 mmHg 64%
    19:00 +16°C° 0.1 mm 2 mps 728 mmHg 71%
    20:00 +15°C° 0 mm 2 mps 728 mmHg 73%
    21:00 +14°C° 0 mm 2 mps 728 mmHg 75%
    22:00 +12°C° 0 mm 2 mps 729 mmHg 78%
    23:00 +12°C° 0 mm 1 mps 729 mmHg 77%

    Tomorrow, 22 April, Sunday

    Time Temperature Precipitation Wind Pressure Humidity
    00:00 +11°C° 0 mm 1 mps 729 mmHg 77%
    01:00 +10°C° 0 mm 1 mps 729 mmHg 77%
    02:00 +9°C° 0 mm 1 mps 728 mmHg 77%
    03:00 +9°C° 0 mm 1 mps 728 mmHg 76%
    04:00 +9°C° 0 mm 1 mps 728 mmHg 76%
    05:00 +10°C° 0 mm 1 mps 728 mmHg 72%
    06:00 +11°C° 0 mm 1 mps 728 mmHg 68%
    07:00 +12°C° 0 mm 1 mps 728 mmHg 64%
    08:00 +14°C° 0 mm 1 mps 728 mmHg 59%
    09:00 +16°C° 0 mm 1 mps 729 mmHg 54%
    10:00 +19°C° 0 mm 1 mps 729 mmHg 49%
    11:00 +20°C° 0 mm 1 mps 728 mmHg 46%
    12:00 +21°C° 0 mm 1 mps 728 mmHg 44%
    13:00 +22°C° 0 mm 1 mps 728 mmHg 41%
    14:00 +22°C° 0 mm 1 mps 727 mmHg 42%
    15:00 +22°C° 0 mm 1 mps 727 mmHg 43%
    16:00 +20°C° 0 mm 2 mps 727 mmHg 44%
    17:00 +18°C° 0 mm 2 mps 726 mmHg 51%
    18:00 +16°C° 0 mm 2 mps 726 mmHg 58%
    19:00 +14°C° 0 mm 2 mps 726 mmHg 65%
    20:00 +14°C° 0 mm 2 mps 726 mmHg 67%
    21:00 +13°C° 0 mm 2 mps 726 mmHg 68%
    22:00 +13°C° 0 mm 2 mps 726 mmHg 69%
    23:00 +13°C° 0 mm 2 mps 726 mmHg 71%

    Day after tomorrow, 23 April, Monday

    Time Temperature Precipitation Wind Pressure Humidity
    00:00 +13°C° 0 mm 2 mps 726 mmHg 72%
    01:00 +12°C° 0 mm 2 mps 725 mmHg 73%
    02:00 +13°C° 0.2 mm 2 mps 725 mmHg 75%
    03:00 +13°C° 0.2 mm 2 mps 725 mmHg 78%
    04:00 +13°C° 0.2 mm 2 mps 725 mmHg 81%
    05:00 +14°C° 0.1 mm 2 mps 725 mmHg 80%
    06:00 +15°C° 0.1 mm 2 mps 725 mmHg 79%
    07:00 +16°C° 0.1 mm 2 mps 725 mmHg 78%
    08:00 +18°C° 0 mm 3 mps 725 mmHg 72%
    09:00 +20°C° 0 mm 4 mps 725 mmHg 66%
    10:00 +21°C° 0 mm 5 mps 725 mmHg 60%
    11:00 +21°C° 0.4 mm 5 mps 725 mmHg 60%
    12:00 +22°C° 0.4 mm 5 mps 725 mmHg 60%
    13:00 +22°C° 0.4 mm 6 mps 724 mmHg 59%
    14:00 +20°C° 0.8 mm 5 mps 724 mmHg 66%
    15:00 +19°C° 0.8 mm 5 mps 724 mmHg 73%
    16:00 +17°C° 0.8 mm 4 mps 724 mmHg 80%
    17:00 +17°C° 0.4 mm 4 mps 724 mmHg 83%
    18:00 +15°C° 0.4 mm 4 mps 724 mmHg 87%
    19:00 +14°C° 0.4 mm 3 mps 724 mmHg 90%
    20:00 +13°C° 0 mm 3 mps 725 mmHg 91%
    21:00 +12°C° 0 mm 3 mps 725 mmHg 91%
    22:00 +12°C° 0 mm 3 mps 726 mmHg 92%
    23:00 +11°C° 0 mm 3 mps 726 mmHg 93%

    24 April, Tuesday

    Time Temperature Precipitation Wind Pressure Humidity
    00:00 +10°C° 0 mm 3 mps 726 mmHg 93%
    01:00 +9°C° 0 mm 3 mps 726 mmHg 93%
    02:00 +9°C° 0 mm 2 mps 726 mmHg 93%
    03:00 +8°C° 0 mm 2 mps 727 mmHg 93%
    04:00 +8°C° 0 mm 2 mps 727 mmHg 93%
    05:00 +9°C° 0 mm 2 mps 727 mmHg 89%
    06:00 +10°C° 0 mm 3 mps 727 mmHg 85%
    07:00 +11°C° 0 mm 3 mps 728 mmHg 81%
    08:00 +12°C° 0 mm 3 mps 728 mmHg 74%
    09:00 +14°C° 0 mm 4 mps 728 mmHg 66%
    10:00 +15°C° 0 mm 4 mps 728 mmHg 59%
    11:00 +17°C° 0 mm 4 mps 728 mmHg 56%
    12:00 +18°C° 0 mm 4 mps 727 mmHg 53%
    13:00 +19°C° 0 mm 5 mps 727 mmHg 50%
    14:00 +19°C° 0 mm 4 mps 727 mmHg 51%
    15:00 +19°C° 0 mm 4 mps 726 mmHg 51%
    16:00 +19°C° 0 mm 4 mps 726 mmHg 51%
    17:00 +18°C° 0 mm 3 mps 726 mmHg 58%
    18:00 +16°C° 0 mm 3 mps 726 mmHg 64%
    19:00 +15°C° 0 mm 2 mps 725 mmHg 70%
    20:00 +14°C° 0 mm 2 mps 725 mmHg 73%
    21:00 +13°C° 0 mm 2 mps 726 mmHg 76%
    22:00 +12°C° 0 mm 2 mps 726 mmHg 79%
    23:00 +10°C° 0 mm 2 mps 726 mmHg 82%

    25 April, Wednesday

    Time Temperature Precipitation Wind Pressure Humidity
    00:00 +11°C° 0 mm 1 mps 726 mmHg 84%
    01:00 +10°C° 0 mm 1 mps 726 mmHg 86%
    02:00 +10°C° 0 mm 1 mps 726 mmHg 87%
    03:00 +9°C° 0 mm 1 mps 725 mmHg 88%
    04:00 +9°C° 0 mm 1 mps 725 mmHg 89%
    05:00 +10°C° 0 mm 1 mps 726 mmHg 85%
    06:00 +12°C° 0 mm 1 mps 726 mmHg 80%
    07:00 +13°C° 0 mm 1 mps 726 mmHg 75%
    08:00 +15°C° 0 mm 2 mps 726 mmHg 70%
    09:00 +16°C° 0 mm 2 mps 726 mmHg 64%
    10:00 +18°C° 0 mm 3 mps 726 mmHg 59%
    11:00 +19°C° 0 mm 3 mps 725 mmHg 55%
    12:00 +20°C° 0 mm 4 mps 725 mmHg 52%
    13:00 +21°C° 0 mm 4 mps 725 mmHg 49%
    14:00 +21°C° 0 mm 4 mps 724 mmHg 48%
    15:00 +22°C° 0 mm 4 mps 723 mmHg 48%
    16:00 +22°C° 0 mm 4 mps 722 mmHg 48%
    17:00 +21°C° 0 mm 4 mps 722 mmHg 54%
    18:00 +19°C° 0 mm 3 mps 721 mmHg 60%
    19:00 +17°C° 0 mm 3 mps 721 mmHg 66%
    20:00 +17°C° 0.3 mm 3 mps 721 mmHg 71%
    21:00 +15°C° 0.3 mm 4 mps 721 mmHg 75%
    22:00 +14°C° 0.3 mm 4 mps 721 mmHg 80%
    23:00 +14°C° 0 mm 4 mps 721 mmHg 82%

    26 April, Thursday

    Time Temperature Precipitation Wind Pressure Humidity
    00:00 +14°C° 0 mm 4 mps 721 mmHg 84%
    01:00 +13°C° 0 mm 4 mps 721 mmHg 86%
    02:00 +13°C° 0 mm 4 mps 721 mmHg 89%
    03:00 +12°C° 0 mm 3 mps 721 mmHg 91%
    04:00 +12°C° 0 mm 3 mps 721 mmHg 93%
    05:00 +12°C° 0 mm 3 mps 721 mmHg 90%
    06:00 +13°C° 0 mm 3 mps 722 mmHg 86%
    07:00 +14°C° 0 mm 4 mps 722 mmHg 83%
    08:00 +14°C° 0 mm 4 mps 722 mmHg 77%
    09:00 +15°C° 0 mm 4 mps 722 mmHg 72%
    10:00 +17°C° 0 mm 4 mps 723 mmHg 66%
    11:00 +15°C° 0.4 mm 4 mps 722 mmHg 68%
    12:00 +15°C° 0.4 mm 4 mps 722 mmHg 70%
    13:00 +16°C° 0.4 mm 3 mps 722 mmHg 72%
    14:00 +14°C° 0.6 mm 3 mps 722 mmHg 75%
    15:00 +14°C° 0.6 mm 3 mps 722 mmHg 78%
    16:00 +13°C° 0.6 mm 3 mps 722 mmHg 81%
    17:00 +12°C° 0.5 mm 3 mps 722 mmHg 81%
    18:00 +12°C° 0.5 mm 3 mps 722 mmHg 81%
    19:00 +11°C° 0.5 mm 3 mps 722 mmHg 81%
    20:00 +10°C° 0.2 mm 3 mps 722 mmHg 80%
    21:00 +9°C° 0.2 mm 3 mps 723 mmHg 80%
    22:00 +9°C° 0.2 mm 2 mps 723 mmHg 79%
    23:00 +8°C° 0 mm 2 mps 723 mmHg 79%
    Show more